Wetterdaten: Mittwoch, 11.02.2015
Datum Zeit Auen-Temp. Temp. -10 cm Luftfeuchte Luftfeuchte Luftdruck Regen Wind Richtung Richtung Taupunkt Windchill Windben
11.02.2015 00:00 -8,2 C 1,3 C 79 % 79 % 1028,1 hPa 0,0 l/m 0,0 km/h (0 Bft) W-SW 247 -11,2 C -8,9 C 0,0 km/h (0 Bft)
11.02.2015 00:05 -8,2 C 1,3 C 79 % 79 % 1028,1 hPa 0,0 l/m 0,0 km/h (0 Bft) W-SW 247 -11,2 C -9,0 C 0,0 km/h (0 Bft)
11.02.2015 00:10 -8,3 C 1,3 C 79 % 79 % 1028,1 hPa 0,0 l/m 0,0 km/h (0 Bft) W-SW 247 -11,3 C -8,9 C 0,0 km/h (0 Bft)
11.02.2015 00:15 -8,3 C 1,3 C 79 % 79 % 1028,0 hPa 0,0 l/m 0,0 km/h (0 Bft) W-SW 247 -11,3 C -8,9 C 0,0 km/h (0 Bft)
11.02.2015 00:20 -8,4 C 1,3 C 79 % 79 % 1028,0 hPa 0,0 l/m 0,0 km/h (0 Bft) W-SW 247 -11,4 C -8,9 C 0,0 km/h (0 Bft)
11.02.2015 00:25 -8,5 C 1,3 C 79 % 79 % 1028,0 hPa 0,0 l/m 0,0 km/h (0 Bft) W-SW 247 -11,5 C -8,9 C 0,0 km/h (0 Bft)
11.02.2015 00:30 -8,4 C 1,3 C 79 % 79 % 1028,0 hPa 0,0 l/m 0,0 km/h (0 Bft) SW 225 -11,4 C -8,8 C 0,0 km/h (0 Bft)
11.02.2015 00:35 -8,4 C 1,3 C 79 % 79 % 1027,8 hPa 0,0 l/m 0,0 km/h (0 Bft) SW 225 -11,4 C -8,7 C 0,0 km/h (0 Bft)
11.02.2015 00:40 -8,3 C 1,3 C 79 % 79 % 1027,8 hPa 0,0 l/m 0,0 km/h (0 Bft) W-SW 247 -11,3 C -8,8 C 0,0 km/h (0 Bft)
11.02.2015 00:46 -8,1 C 1,3 C 79 % 79 % 1027,8 hPa 0,0 l/m 0,0 km/h (0 Bft) N-NO 22 -11,1 C -8,8 C 0,0 km/h (0 Bft)
11.02.2015 00:50 -8,2 C 1,3 C 79 % 79 % 1027,8 hPa 0,0 l/m 0,0 km/h (0 Bft) N-NO 22 -11,2 C -8,7 C 0,0 km/h (0 Bft)
11.02.2015 00:55 -7,9 C 1,3 C 79 % 79 % 1027,7 hPa 0,0 l/m 0,0 km/h (0 Bft) SO 135 -10,9 C -8,7 C 0,0 km/h (0 Bft)
11.02.2015 01:00 -8,3 C 1,3 C 79 % 79 % 1027,7 hPa 0,0 l/m 0,0 km/h (0 Bft) SO 135 -11,3 C -8,7 C 0,0 km/h (0 Bft)
11.02.2015 01:05 -8,5 C 1,3 C 79 % 79 % 1027,7 hPa 0,0 l/m 0,0 km/h (0 Bft) SO 135 -11,5 C -8,8 C 0,0 km/h (0 Bft)
11.02.2015 01:10 -8,3 C 1,3 C 79 % 79 % 1027,7 hPa 0,0 l/m 0,0 km/h (0 Bft) N-NO 22 -11,3 C -8,9 C 0,0 km/h (0 Bft)
11.02.2015 01:15 -8,6 C 1,3 C 79 % 79 % 1027,6 hPa 0,0 l/m 0,0 km/h (0 Bft) N-NO 22 -11,6 C -9,1 C 0,0 km/h (0 Bft)
11.02.2015 01:20 -8,7 C 1,3 C 79 % 79 % 1027,6 hPa 0,0 l/m 0,0 km/h (0 Bft) O-NO 67 -11,7 C -9,2 C 0,0 km/h (0 Bft)
11.02.2015 01:25 -8,8 C 1,3 C 79 % 79 % 1027,6 hPa 0,0 l/m 0,0 km/h (0 Bft) O-NO 67 -11,8 C -9,2 C 0,0 km/h (0 Bft)
11.02.2015 01:30 -8,7 C 1,3 C 79 % 79 % 1027,6 hPa 0,0 l/m 0,0 km/h (0 Bft) O-NO 67 -11,7 C -9,3 C 0,0 km/h (0 Bft)
11.02.2015 01:35 -9,0 C 1,3 C 79 % 79 % 1027,5 hPa 0,0 l/m 0,0 km/h (0 Bft) O-NO 67 -12,0 C -9,6 C 0,0 km/h (0 Bft)
11.02.2015 01:40 -9,2 C 1,3 C 79 % 79 % 1027,5 hPa 0,0 l/m 0,0 km/h (0 Bft) O-NO 67 -12,2 C -9,8 C 0,0 km/h (0 Bft)
11.02.2015 01:45 -9,0 C 1,3 C 79 % 79 % 1027,5 hPa 0,0 l/m 0,0 km/h (0 Bft) O-NO 67 -12,0 C -9,9 C 0,0 km/h (0 Bft)
11.02.2015 01:50 -9,0 C 1,3 C 79 % 79 % 1027,5 hPa 0,0 l/m 0,0 km/h (0 Bft) O-NO 67 -12,0 C -9,8 C 0,0 km/h (0 Bft)
11.02.2015 01:55 -8,6 C 1,3 C 79 % 79 % 1027,5 hPa 0,0 l/m 0,0 km/h (0 Bft) N-NO 22 -11,6 C -9,7 C 0,0 km/h (0 Bft)
11.02.2015 02:00 -9,3 C 1,3 C 79 % 79 % 1027,5 hPa 0,0 l/m 0,0 km/h (0 Bft) N-NO 22 -12,2 C -9,8 C 0,0 km/h (0 Bft)
11.02.2015 02:05 -9,3 C 1,3 C 79 % 79 % 1027,5 hPa 0,0 l/m 0,0 km/h (0 Bft) N-NO 22 -12,2 C -9,8 C 0,0 km/h (0 Bft)
11.02.2015 02:10 -9,0 C 1,3 C 79 % 79 % 1027,5 hPa 0,0 l/m 0,0 km/h (0 Bft) N-NO 22 -12,0 C -9,8 C 0,0 km/h (0 Bft)
11.02.2015 02:15 -9,3 C 1,3 C 79 % 79 % 1027,6 hPa 0,0 l/m 0,0 km/h (0 Bft) N-NO 22 -12,2 C -9,9 C 0,0 km/h (0 Bft)
11.02.2015 02:20 -9,6 C 1,3 C 78 % 78 % 1027,6 hPa 0,0 l/m 0,0 km/h (0 Bft) N-NO 22 -12,7 C -10,0 C 0,0 km/h (0 Bft)
11.02.2015 02:25 -9,5 C 1,3 C 79 % 79 % 1027,6 hPa 0,0 l/m 0,0 km/h (0 Bft) N-NO 22 -12,4 C -10,0 C 0,0 km/h (0 Bft)
11.02.2015 02:30 -9,2 C 1,3 C 79 % 79 % 1027,6 hPa 0,0 l/m 0,0 km/h (0 Bft) N-NO 22 -12,2 C -10,0 C 0,0 km/h (0 Bft)
11.02.2015 02:35 -9,4 C 1,3 C 78 % 78 % 1027,2 hPa 0,0 l/m 0,0 km/h (0 Bft) NO 45 -12,5 C -10,0 C 0,0 km/h (0 Bft)
11.02.2015 02:40 -9,4 C 1,3 C 79 % 79 % 1027,2 hPa 0,0 l/m 0,0 km/h (0 Bft) O-SO 112 -12,3 C -10,0 C 0,0 km/h (0 Bft)
11.02.2015 02:45 -9,4 C 1,3 C 78 % 78 % 1027,2 hPa 0,0 l/m 0,0 km/h (0 Bft) O-SO 112 -12,5 C -10,0 C 0,0 km/h (0 Bft)
11.02.2015 02:50 -9,5 C 1,3 C 78 % 78 % 1027,2 hPa 0,0 l/m 0,0 km/h (0 Bft) O-SO 112 -12,6 C -10,0 C 0,0 km/h (0 Bft)
11.02.2015 02:55 -9,7 C 1,3 C 78 % 78 % 1027,2 hPa 0,0 l/m 0,0 km/h (0 Bft) O-SO 112 -12,8 C -10,0 C 0,0 km/h (0 Bft)
11.02.2015 03:00 -9,8 C 1,3 C 78 % 78 % 1027,2 hPa 0,0 l/m 0,0 km/h (0 Bft) O-SO 112 -12,9 C -10,2 C 0,0 km/h (0 Bft)
11.02.2015 03:05 -9,8 C 1,3 C 78 % 78 % 1027,2 hPa 0,0 l/m 0,0 km/h (0 Bft) O-SO 112 -12,9 C -10,3 C 0,0 km/h (0 Bft)
11.02.2015 03:10 -9,9 C 1,3 C 78 % 78 % 1027,2 hPa 0,0 l/m 0,0 km/h (0 Bft) O-SO 112 -13,0 C -10,4 C 0,0 km/h (0 Bft)
11.02.2015 03:15 -9,9 C 1,3 C 78 % 78 % 1026,7 hPa 0,0 l/m 0,0 km/h (0 Bft) O-SO 112 -13,0 C -10,4 C 0,0 km/h (0 Bft)
11.02.2015 03:20 -10,1 C 1,3 C 78 % 78 % 1026,7 hPa 0,0 l/m 0,0 km/h (0 Bft) O-SO 112 -13,2 C -10,6 C 0,0 km/h (0 Bft)
11.02.2015 03:25 -10,1 C 1,3 C 78 % 78 % 1026,7 hPa 0,0 l/m 0,0 km/h (0 Bft) O-SO 112 -13,2 C -10,6 C 0,0 km/h (0 Bft)
11.02.2015 03:30 -10,1 C 1,3 C 78 % 78 % 1026,7 hPa 0,0 l/m 0,0 km/h (0 Bft) O-SO 112 -13,2 C -10,7 C 0,0 km/h (0 Bft)
11.02.2015 03:35 -10,0 C 1,3 C 78 % 78 % 1026,7 hPa 0,0 l/m 0,0 km/h (0 Bft) O-SO 112 -13,1 C -10,8 C 0,0 km/h (0 Bft)
11.02.2015 03:40 -9,5 C 1,3 C 78 % 78 % 1026,7 hPa 0,0 l/m 0,0 km/h (0 Bft) O-SO 112 -12,6 C -10,6 C 0,0 km/h (0 Bft)
11.02.2015 03:45 -9,8 C 1,3 C 78 % 78 % 1026,7 hPa 0,0 l/m 0,0 km/h (0 Bft) O-SO 112 -12,9 C -10,6 C 0,0 km/h (0 Bft)
11.02.2015 03:50 -9,7 C 1,3 C 78 % 78 % 1026,7 hPa 0,0 l/m 0,0 km/h (0 Bft) O-SO 112 -12,8 C -10,6 C 0,0 km/h (0 Bft)
11.02.2015 03:55 -9,9 C 1,3 C 78 % 78 % 1026,5 hPa 0,0 l/m 0,0 km/h (0 Bft) O-SO 112 -13,0 C -10,6 C 0,0 km/h (0 Bft)
11.02.2015 04:00 -9,9 C 1,3 C 78 % 78 % 1026,5 hPa 0,0 l/m 0,0 km/h (0 Bft) O-SO 112 -13,0 C -10,7 C 0,0 km/h (0 Bft)
11.02.2015 04:05 -10,1 C 1,3 C 78 % 78 % 1026,5 hPa 0,0 l/m 0,0 km/h (0 Bft) O-SO 112 -13,2 C -10,7 C 0,0 km/h (0 Bft)
11.02.2015 04:10 -9,9 C 1,3 C 78 % 78 % 1026,5 hPa 0,0 l/m 0,0 km/h (0 Bft) O-SO 112 -13,0 C -10,6 C 0,0 km/h (0 Bft)
11.02.2015 04:15 -10,2 C 1,4 C 78 % 78 % 1026,4 hPa 0,0 l/m 0,0 km/h (0 Bft) O-SO 112 -13,3 C -10,7 C 0,0 km/h (0 Bft)
11.02.2015 04:20 -10,6 C 1,4 C 78 % 78 % 1026,4 hPa 0,0 l/m 0,0 km/h (0 Bft) O-SO 112 -13,7 C -11,0 C 0,0 km/h (0 Bft)
11.02.2015 04:25 -10,5 C 1,4 C 78 % 78 % 1026,4 hPa 0,0 l/m 0,0 km/h (0 Bft) O-SO 112 -13,6 C -11,2 C 0,0 km/h (0 Bft)
11.02.2015 04:30 -10,5 C 1,4 C 78 % 78 % 1026,4 hPa 0,0 l/m 0,0 km/h (0 Bft) O-SO 112 -13,6 C -11,0 C 0,0 km/h (0 Bft)
11.02.2015 04:35 -10,2 C 1,4 C 78 % 78 % 1026,4 hPa 0,0 l/m 0,0 km/h (0 Bft) O-SO 112 -13,3 C -11,0 C 0,0 km/h (0 Bft)
11.02.2015 04:40 -10,1 C 1,4 C 78 % 78 % 1026,4 hPa 0,0 l/m 0,0 km/h (0 Bft) O-SO 112 -13,2 C -10,8 C 0,0 km/h (0 Bft)
11.02.2015 04:45 -10,1 C 1,4 C 78 % 78 % 1026,4 hPa 0,0 l/m 0,0 km/h (0 Bft) O-SO 112 -13,2 C -10,8 C 0,0 km/h (0 Bft)
11.02.2015 04:50 -10,1 C 1,4 C 78 % 78 % 1026,4 hPa 0,0 l/m 0,0 km/h (0 Bft) O-SO 112 -13,2 C -10,6 C 0,0 km/h (0 Bft)
11.02.2015 04:55 -9,9 C 1,4 C 78 % 78 % 1026,2 hPa 0,0 l/m 0,0 km/h (0 Bft) O-SO 112 -13,0 C -10,6 C 0,0 km/h (0 Bft)
11.02.2015 05:00 -9,5 C 1,3 C 78 % 78 % 1026,2 hPa 0,0 l/m 0,0 km/h (0 Bft) O-SO 112 -12,6 C -10,6 C 0,0 km/h (0 Bft)
11.02.2015 05:05 -10,0 C 1,3 C 78 % 78 % 1026,2 hPa 0,0 l/m 0,0 km/h (0 Bft) O-SO 112 -13,1 C -10,6 C 0,0 km/h (0 Bft)
11.02.2015 05:10 -10,1 C 1,3 C 78 % 78 % 1026,2 hPa 0,0 l/m 0,0 km/h (0 Bft) O-SO 112 -13,2 C -10,7 C 0,0 km/h (0 Bft)
11.02.2015 05:15 -9,7 C 1,3 C 78 % 78 % 1026,3 hPa 0,0 l/m 0,0 km/h (0 Bft) O-SO 112 -12,8 C -10,4 C 0,0 km/h (0 Bft)
11.02.2015 05:20 -9,0 C 1,3 C 78 % 78 % 1026,3 hPa 0,0 l/m 0,0 km/h (0 Bft) O-SO 112 -12,1 C -9,9 C 0,0 km/h (0 Bft)
11.02.2015 05:25 -8,9 C 1,3 C 78 % 78 % 1026,3 hPa 0,0 l/m 0,0 km/h (0 Bft) O-SO 112 -12,0 C -9,6 C 0,0 km/h (0 Bft)
11.02.2015 05:30 -8,9 C 1,3 C 79 % 79 % 1026,3 hPa 0,0 l/m 0,0 km/h (0 Bft) SO 135 -11,9 C -9,2 C 0,0 km/h (0 Bft)
11.02.2015 05:35 -9,0 C 1,3 C 79 % 79 % 1026,4 hPa 0,0 l/m 0,0 km/h (0 Bft) SO 135 -12,0 C -9,2 C 0,0 km/h (0 Bft)
11.02.2015 05:40 -9,1 C 1,3 C 79 % 79 % 1026,4 hPa 0,0 l/m 0,0 km/h (0 Bft) SO 135 -12,1 C -9,1 C 0,0 km/h (0 Bft)
11.02.2015 05:45 -8,9 C 1,3 C 79 % 79 % 1026,4 hPa 0,0 l/m 0,0 km/h (0 Bft) S-SO 157 -11,9 C -9,0 C 0,0 km/h (0 Bft)
11.02.2015 05:50 -8,7 C 1,3 C 79 % 79 % 1026,4 hPa 0,0 l/m 0,0 km/h (0 Bft) S-SW 202 -11,7 C -8,9 C 0,0 km/h (0 Bft)
11.02.2015 05:55 -8,6 C 1,3 C 79 % 79 % 1026,4 hPa 0,0 l/m 0,0 km/h (0 Bft) SW 225 -11,6 C -8,8 C 0,0 km/h (0 Bft)
11.02.2015 06:00 -8,2 C 1,3 C 79 % 79 % 1026,4 hPa 0,0 l/m 0,0 km/h (0 Bft) S 180 -11,2 C -8,6 C 0,0 km/h (0 Bft)
11.02.2015 06:05 -8,2 C 1,3 C 79 % 79 % 1026,4 hPa 0,0 l/m 0,0 km/h (0 Bft) S 180 -11,2 C -8,6 C 0,0 km/h (0 Bft)
11.02.2015 06:10 -7,9 C 1,3 C 79 % 79 % 1026,4 hPa 0,0 l/m 0,0 km/h (0 Bft) S 180 -10,9 C -8,3 C 0,0 km/h (0 Bft)
11.02.2015 06:15 -7,8 C 1,3 C 79 % 79 % 1026,5 hPa 0,0 l/m 0,0 km/h (0 Bft) S 180 -10,8 C -8,2 C 0,0 km/h (0 Bft)
11.02.2015 06:20 -7,5 C 1,3 C 79 % 79 % 1026,5 hPa 0,0 l/m 0,0 km/h (0 Bft) W-NW 292 -10,5 C -8,0 C 1,8 km/h (1 Bft)
11.02.2015 06:25 -7,5 C 1,3 C 79 % 79 % 1026,5 hPa 0,0 l/m 0,0 km/h (0 Bft) W-SW 247 -10,5 C -7,9 C 0,0 km/h (0 Bft)
11.02.2015 06:30 -7,4 C 1,3 C 79 % 79 % 1026,5 hPa 0,0 l/m 0,0 km/h (0 Bft) W-SW 247 -10,4 C -7,8 C 0,0 km/h (0 Bft)
11.02.2015 06:35 -7,4 C 1,3 C 79 % 79 % 1026,8 hPa 0,0 l/m 0,0 km/h (0 Bft) SO 135 -10,4 C -7,8 C 0,0 km/h (0 Bft)
11.02.2015 06:40 -7,5 C 1,3 C 80 % 80 % 1026,8 hPa 0,0 l/m 0,0 km/h (0 Bft) S-SO 157 -10,3 C -7,8 C 1,9 km/h (1 Bft)
11.02.2015 06:45 -7,5 C 1,3 C 80 % 80 % 1026,8 hPa 0,0 l/m 0,0 km/h (0 Bft) S-SO 157 -10,3 C -7,9 C 0,0 km/h (0 Bft)
11.02.2015 06:50 -7,5 C 1,3 C 80 % 80 % 1026,8 hPa 0,0 l/m 0,0 km/h (0 Bft) S-SO 157 -10,3 C -8,0 C 0,0 km/h (0 Bft)
11.02.2015 06:55 -7,5 C 1,3 C 80 % 80 % 1026,6 hPa 0,0 l/m 0,0 km/h (0 Bft) S-SO 157 -10,3 C -8,1 C 0,0 km/h (0 Bft)
11.02.2015 07:00 -7,3 C 1,3 C 80 % 80 % 1026,6 hPa 0,0 l/m 0,0 km/h (0 Bft) SW 225 -10,1 C -8,2 C 0,0 km/h (0 Bft)
11.02.2015 07:05 -7,2 C 1,3 C 80 % 80 % 1026,6 hPa 0,0 l/m 0,0 km/h (0 Bft) S-SW 202 -10,0 C -8,2 C 0,0 km/h (0 Bft)
11.02.2015 07:10 -7,1 C 1,3 C 80 % 80 % 1026,6 hPa 0,0 l/m 0,0 km/h (0 Bft) S-SW 202 -9,9 C -8,2 C 0,0 km/h (0 Bft)
11.02.2015 07:15 -7,3 C 1,3 C 80 % 80 % 1026,6 hPa 0,0 l/m 0,0 km/h (0 Bft) S 180 -10,1 C -8,2 C 0,0 km/h (0 Bft)
11.02.2015 07:20 -7,4 C 1,3 C 80 % 80 % 1026,6 hPa 0,0 l/m 0,0 km/h (0 Bft) S 180 -10,2 C -8,2 C 0,0 km/h (0 Bft)
11.02.2015 07:25 -7,2 C 1,3 C 80 % 80 % 1026,6 hPa 0,0 l/m 0,0 km/h (0 Bft) S-SO 157 -10,0 C -8,2 C 0,0 km/h (0 Bft)
11.02.2015 07:30 -7,4 C 1,3 C 80 % 80 % 1026,6 hPa 0,0 l/m 0,0 km/h (0 Bft) S 180 -10,2 C -8,1 C 0,0 km/h (0 Bft)
11.02.2015 07:35 -7,6 C 1,3 C 80 % 80 % 1026,8 hPa 0,0 l/m 0,0 km/h (0 Bft) S 180 -10,4 C -8,1 C 0,0 km/h (0 Bft)
11.02.2015 07:40 -6,9 C 1,3 C 81 % 81 % 1026,8 hPa 0,0 l/m 0,5 km/h (0 Bft) S 180 -9,6 C -8,0 C 2,9 km/h (1 Bft)
11.02.2015 07:45 -6,9 C 1,3 C 81 % 81 % 1026,8 hPa 0,0 l/m 0,8 km/h (0 Bft) S 180 -9,6 C -7,6 C 0,0 km/h (0 Bft)
11.02.2015 07:50 -7,0 C 1,3 C 81 % 81 % 1026,8 hPa 0,0 l/m 0,3 km/h (0 Bft) S 180 -9,7 C -7,6 C 0,0 km/h (0 Bft)
11.02.2015 07:55 -7,2 C 1,3 C 81 % 81 % 1026,5 hPa 0,0 l/m 0,2 km/h (0 Bft) S-SO 157 -9,9 C -7,8 C 0,0 km/h (0 Bft)
11.02.2015 08:00 -7,5 C 1,3 C 80 % 80 % 1026,5 hPa 0,0 l/m 0,0 km/h (0 Bft) S 180 -10,3 C -8,1 C 1,6 km/h (1 Bft)
11.02.2015 08:05 -7,4 C 1,3 C 80 % 80 % 1026,5 hPa 0,0 l/m 0,3 km/h (0 Bft) S 180 -10,2 C -8,1 C 0,0 km/h (0 Bft)
11.02.2015 08:10 -7,8 C 1,3 C 80 % 80 % 1026,5 hPa 0,0 l/m 0,6 km/h (0 Bft) SO 135 -10,6 C -8,2 C 3,1 km/h (1 Bft)
11.02.2015 08:15 -8,2 C 1,3 C 80 % 80 % 1026,3 hPa 0,0 l/m 0,3 km/h (0 Bft) SO 135 -11,0 C -8,5 C 0,0 km/h (0 Bft)
11.02.2015 08:20 -8,2 C 1,3 C 80 % 80 % 1026,3 hPa 0,0 l/m 0,0 km/h (0 Bft) S 180 -11,0 C -8,8 C 0,0 km/h (0 Bft)
11.02.2015 08:25 -7,9 C 1,3 C 80 % 80 % 1026,3 hPa 0,0 l/m 0,0 km/h (0 Bft) SO 135 -10,7 C -8,8 C 0,0 km/h (0 Bft)
11.02.2015 08:30 -7,8 C 1,3 C 80 % 80 % 1026,3 hPa 0,0 l/m 0,0 km/h (0 Bft) S-SO 157 -10,6 C -8,7 C 0,0 km/h (0 Bft)
11.02.2015 08:35 -7,8 C 1,3 C 80 % 80 % 1026,4 hPa 0,0 l/m 0,0 km/h (0 Bft) SO 135 -10,6 C -8,7 C 0,0 km/h (0 Bft)
11.02.2015 08:40 -7,5 C 1,3 C 80 % 80 % 1026,4 hPa 0,0 l/m 0,0 km/h (0 Bft) O-SO 112 -10,3 C -8,5 C 0,0 km/h (0 Bft)
11.02.2015 08:45 -7,8 C 1,3 C 80 % 80 % 1026,4 hPa 0,0 l/m 0,0 km/h (0 Bft) S-SO 157 -10,6 C -8,4 C 0,0 km/h (0 Bft)
11.02.2015 08:50 -7,7 C 1,3 C 80 % 80 % 1026,4 hPa 0,0 l/m 0,0 km/h (0 Bft) S 180 -10,5 C -8,5 C 0,0 km/h (0 Bft)
11.02.2015 08:55 -7,5 C 1,3 C 80 % 80 % 1026,5 hPa 0,0 l/m 0,0 km/h (0 Bft) S 180 -10,3 C -8,4 C 0,0 km/h (0 Bft)
11.02.2015 09:00 -7,3 C 1,3 C 80 % 80 % 1026,5 hPa 0,0 l/m 0,0 km/h (0 Bft) S 180 -10,1 C -8,2 C 0,0 km/h (0 Bft)
11.02.2015 09:05 -7,2 C 1,3 C 80 % 80 % 1026,5 hPa 0,0 l/m 0,0 km/h (0 Bft) S 180 -10,0 C -8,1 C 0,0 km/h (0 Bft)
11.02.2015 09:10 -7,0 C 1,3 C 81 % 81 % 1026,5 hPa 0,0 l/m 0,0 km/h (0 Bft) S-SO 157 -9,7 C -7,9 C 0,0 km/h (0 Bft)
11.02.2015 09:15 -6,5 C 1,3 C 81 % 81 % 1026,6 hPa 0,0 l/m 0,0 km/h (0 Bft) S 180 -9,2 C -7,4 C 0,0 km/h (0 Bft)
11.02.2015 09:20 -6,0 C 1,4 C 81 % 81 % 1026,6 hPa 0,0 l/m 0,0 km/h (0 Bft) S 180 -8,7 C -6,7 C 0,0 km/h (0 Bft)
11.02.2015 09:25 -6,1 C 1,4 C 81 % 81 % 1026,6 hPa 0,0 l/m 0,0 km/h (0 Bft) S 180 -8,8 C -6,5 C 0,0 km/h (0 Bft)
11.02.2015 09:30 -5,2 C 1,4 C 81 % 81 % 1026,6 hPa 0,0 l/m 0,0 km/h (0 Bft) S 180 -7,9 C -6,1 C 0,0 km/h (0 Bft)
11.02.2015 09:35 -4,4 C 1,4 C 81 % 81 % 1026,8 hPa 0,0 l/m 0,0 km/h (0 Bft) S 180 -7,2 C -5,0 C 0,0 km/h (0 Bft)
11.02.2015 09:40 -3,6 C 1,3 C 82 % 82 % 1026,8 hPa 0,0 l/m 0,0 km/h (0 Bft) NW 315 -6,2 C -3,9 C 0,0 km/h (0 Bft)
11.02.2015 09:45 -3,7 C 1,3 C 82 % 82 % 1026,8 hPa 0,0 l/m 0,3 km/h (0 Bft) N-NO 22 -6,3 C -3,5 C 1,6 km/h (1 Bft)
11.02.2015 09:50 -3,5 C 1,3 C 82 % 82 % 1026,8 hPa 0,0 l/m 0,5 km/h (0 Bft) NW 315 -6,1 C -3,2 C 4,0 km/h (1 Bft)
11.02.2015 09:55 -3,5 C 1,3 C 82 % 82 % 1026,9 hPa 0,0 l/m 1,0 km/h (0 Bft) N-NW 337 -6,1 C -2,9 C 2,9 km/h (1 Bft)
11.02.2015 10:00 -2,8 C 1,4 C 82 % 82 % 1026,9 hPa 0,0 l/m 1,4 km/h (1 Bft) O-NO 67 -5,4 C -2,6 C 4,7 km/h (1 Bft)
11.02.2015 10:05 -2,6 C 1,4 C 82 % 82 % 1026,9 hPa 0,0 l/m 1,3 km/h (1 Bft) NO 45 -5,2 C -2,3 C 0,0 km/h (0 Bft)
11.02.2015 10:10 -2,2 C 1,4 C 83 % 83 % 1026,9 hPa 0,0 l/m 0,3 km/h (0 Bft) N-NO 22 -4,7 C -1,4 C 1,6 km/h (1 Bft)
11.02.2015 10:15 -2,4 C 1,4 C 83 % 83 % 1027,0 hPa 0,0 l/m 0,2 km/h (0 Bft) O 90 -4,9 C -1,4 C 0,0 km/h (0 Bft)
11.02.2015 10:20 -1,5 C 1,4 C 83 % 83 % 1027,0 hPa 0,0 l/m 0,2 km/h (0 Bft) N-NW 337 -4,0 C -0,9 C 0,0 km/h (0 Bft)
11.02.2015 10:25 -1,9 C 1,4 C 83 % 83 % 1027,0 hPa 0,0 l/m 0,2 km/h (0 Bft) W 270 -4,4 C -0,7 C 0,0 km/h (0 Bft)
11.02.2015 10:30 -1,5 C 1,4 C 83 % 83 % 1027,0 hPa 0,0 l/m 0,5 km/h (0 Bft) W-SW 247 -4,0 C -0,6 C 0,0 km/h (0 Bft)
11.02.2015 10:35 -1,8 C 1,4 C 82 % 82 % 1026,9 hPa 0,0 l/m 0,2 km/h (0 Bft) W-NW 292 -4,5 C -0,6 C 1,6 km/h (1 Bft)
11.02.2015 10:40 -2,1 C 1,4 C 82 % 82 % 1026,9 hPa 0,0 l/m 0,5 km/h (0 Bft) NW 315 -4,7 C -0,6 C 0,0 km/h (0 Bft)
11.02.2015 10:45 -1,1 C 1,4 C 82 % 82 % 1026,9 hPa 0,0 l/m 0,3 km/h (0 Bft) W-SW 247 -3,8 C -0,4 C 0,0 km/h (0 Bft)
11.02.2015 10:50 -1,2 C 1,3 C 82 % 82 % 1026,9 hPa 0,0 l/m 0,0 km/h (0 Bft) W 270 -3,9 C 0,3 C 0,0 km/h (0 Bft)
11.02.2015 10:55 -1,2 C 1,3 C 82 % 82 % 1027,0 hPa 0,0 l/m 0,5 km/h (0 Bft) W-SW 247 -3,9 C 0,2 C 0,0 km/h (0 Bft)
11.02.2015 11:00 -1,5 C 1,3 C 81 % 81 % 1027,0 hPa 0,0 l/m 0,6 km/h (0 Bft) N-NW 337 -4,3 C 0,4 C 0,0 km/h (0 Bft)
11.02.2015 11:05 -1,0 C 1,3 C 82 % 82 % 1027,0 hPa 0,0 l/m 0,2 km/h (0 Bft) W 270 -3,7 C 0,6 C 0,0 km/h (0 Bft)
11.02.2015 11:10 -0,7 C 1,3 C 82 % 82 % 1027,0 hPa 0,0 l/m 0,0 km/h (0 Bft) W-SW 247 -3,4 C 1,3 C 0,0 km/h (0 Bft)
11.02.2015 11:15 -0,5 C 1,3 C 82 % 82 % 1027,2 hPa 0,0 l/m 0,0 km/h (0 Bft) O-SO 112 -3,2 C 1,5 C 0,0 km/h (0 Bft)
11.02.2015 11:20 0,2 C 1,3 C 82 % 82 % 1027,2 hPa 0,0 l/m 0,0 km/h (0 Bft) N-NO 22 -2,5 C 1,7 C 0,0 km/h (0 Bft)
11.02.2015 11:25 -0,2 C 1,3 C 82 % 82 % 1027,2 hPa 0,0 l/m 0,0 km/h (0 Bft) W-NW 292 -2,9 C 2,0 C 0,0 km/h (0 Bft)
11.02.2015 11:30 -0,6 C 1,3 C 81 % 81 % 1027,2 hPa 0,0 l/m 0,5 km/h (0 Bft) W-SW 247 -3,4 C 2,1 C 0,0 km/h (0 Bft)
11.02.2015 11:35 -0,7 C 1,3 C 81 % 81 % 1027,3 hPa 0,0 l/m 0,5 km/h (0 Bft) W-SW 247 -3,5 C 2,1 C 0,0 km/h (0 Bft)
11.02.2015 11:40 -0,7 C 1,3 C 80 % 80 % 1027,3 hPa 0,0 l/m 0,0 km/h (0 Bft) S 180 -3,7 C 2,5 C 0,0 km/h (0 Bft)
11.02.2015 11:45 -0,5 C 1,3 C 81 % 81 % 1027,3 hPa 0,0 l/m 0,0 km/h (0 Bft) SW 225 -3,3 C 4,4 C 0,0 km/h (0 Bft)
11.02.2015 11:50 -0,8 C 1,3 C 81 % 81 % 1027,3 hPa 0,0 l/m 0,0 km/h (0 Bft) S-SO 157 -3,6 C 4,8 C 0,0 km/h (0 Bft)
11.02.2015 11:55 -0,4 C 1,4 C 81 % 81 % 1028,1 hPa 0,0 l/m 0,0 km/h (0 Bft) S-SO 157 -3,3 C 5,2 C 0,0 km/h (0 Bft)
11.02.2015 12:00 -0,5 C 1,3 C 81 % 81 % 1028,1 hPa 0,0 l/m 0,0 km/h (0 Bft) SO 135 -3,3 C 5,5 C 0,0 km/h (0 Bft)
11.02.2015 12:05 -0,5 C 1,3 C 81 % 81 % 1028,1 hPa 0,0 l/m 0,0 km/h (0 Bft) S 180 -3,3 C 4,5 C 0,0 km/h (0 Bft)
11.02.2015 12:10 -0,5 C 1,3 C 82 % 82 % 1028,1 hPa 0,0 l/m 0,0 km/h (0 Bft) SO 135 -3,2 C 3,1 C 0,0 km/h (0 Bft)
11.02.2015 12:15 -0,7 C 1,3 C 82 % 82 % 1029,1 hPa 0,0 l/m 0,0 km/h (0 Bft) S 180 -3,4 C 3,9 C 0,0 km/h (0 Bft)
11.02.2015 12:20 -1,2 C 1,3 C 82 % 82 % 1029,1 hPa 0,0 l/m 0,3 km/h (0 Bft) W-SW 247 -3,9 C 2,8 C 0,0 km/h (0 Bft)
11.02.2015 12:25 -1,3 C 1,3 C 82 % 82 % 1029,1 hPa 0,0 l/m 0,3 km/h (0 Bft) W-SW 247 -4,0 C 1,4 C 0,0 km/h (0 Bft)
11.02.2015 12:30 -1,2 C 1,3 C 82 % 82 % 1029,1 hPa 0,0 l/m 0,2 km/h (0 Bft) S-SW 202 -3,9 C 0,4 C 0,0 km/h (0 Bft)
11.02.2015 12:35 -1,0 C 1,3 C 82 % 82 % 1029,1 hPa 0,0 l/m 0,0 km/h (0 Bft) S-SW 202 -3,7 C 0,1 C 0,0 km/h (0 Bft)
11.02.2015 12:40 -0,8 C 1,3 C 83 % 83 % 1029,1 hPa 0,0 l/m 0,0 km/h (0 Bft) S-SW 202 -3,3 C -0,3 C 0,0 km/h (0 Bft)
11.02.2015 12:45 -0,7 C 1,3 C 83 % 83 % 1029,1 hPa 0,0 l/m 0,0 km/h (0 Bft) S-SW 202 -3,2 C -0,3 C 0,0 km/h (0 Bft)
11.02.2015 12:50 -0,6 C 1,3 C 83 % 83 % 1029,1 hPa 0,0 l/m 0,0 km/h (0 Bft) S 180 -3,1 C -0,2 C 0,0 km/h (0 Bft)
11.02.2015 12:55 -0,5 C 1,3 C 83 % 83 % 1028,6 hPa 0,0 l/m 0,0 km/h (0 Bft) S 180 -3,0 C 0,1 C 0,0 km/h (0 Bft)
11.02.2015 13:00 -0,3 C 1,3 C 83 % 83 % 1028,6 hPa 0,0 l/m 0,0 km/h (0 Bft) S 180 -2,8 C 0,4 C 0,0 km/h (0 Bft)
11.02.2015 13:05 -0,1 C 1,3 C 84 % 84 % 1028,6 hPa 0,0 l/m 0,0 km/h (0 Bft) S 180 -2,5 C 2,1 C 0,0 km/h (0 Bft)
11.02.2015 13:10 0,2 C 1,3 C 84 % 84 % 1028,6 hPa 0,0 l/m 0,0 km/h (0 Bft) S 180 -2,2 C 3,0 C 0,0 km/h (0 Bft)
11.02.2015 13:15 0,2 C 1,3 C 84 % 84 % 1028,1 hPa 0,0 l/m 0,0 km/h (0 Bft) S 180 -2,2 C 4,3 C 0,0 km/h (0 Bft)
11.02.2015 13:20 0,4 C 1,3 C 84 % 84 % 1028,1 hPa 0,0 l/m 0,0 km/h (0 Bft) O-SO 112 -2,0 C 4,3 C 0,0 km/h (0 Bft)
11.02.2015 13:25 0,7 C 1,3 C 84 % 84 % 1028,1 hPa 0,0 l/m 0,0 km/h (0 Bft) N-NW 337 -1,7 C 3,5 C 0,0 km/h (0 Bft)
11.02.2015 13:30 0,9 C 1,3 C 84 % 84 % 1028,1 hPa 0,0 l/m 0,0 km/h (0 Bft) O 90 -1,5 C 3,2 C 0,0 km/h (0 Bft)
11.02.2015 13:35 1,2 C 1,2 C 84 % 84 % 1028,1 hPa 0,0 l/m 0,0 km/h (0 Bft) O 90 -1,2 C 3,3 C 0,0 km/h (0 Bft)
11.02.2015 13:40 2,3 C 1,2 C 84 % 84 % 1028,1 hPa 0,0 l/m 0,0 km/h (0 Bft) O-NO 67 -0,1 C 4,8 C 0,0 km/h (0 Bft)
11.02.2015 13:45 3,9 C 1,3 C 84 % 84 % 1028,1 hPa 0,0 l/m 0,0 km/h (0 Bft) O-SO 112 1,4 C 6,4 C 0,0 km/h (0 Bft)
11.02.2015 13:50 5,9 C 1,3 C 84 % 84 % 1028,1 hPa 0,0 l/m 0,0 km/h (0 Bft) O-SO 112 3,4 C 9,0 C 0,0 km/h (0 Bft)
11.02.2015 13:55 6,3 C 1,3 C 84 % 84 % 1028,3 hPa 0,0 l/m 0,0 km/h (0 Bft) O-SO 112 3,8 C 10,4 C 0,0 km/h (0 Bft)
11.02.2015 14:00 7,6 C 1,2 C 84 % 84 % 1028,3 hPa 0,0 l/m 0,0 km/h (0 Bft) O-NO 67 5,1 C 12,9 C 0,0 km/h (0 Bft)
11.02.2015 14:05 8,0 C 1,3 C 83 % 83 % 1028,3 hPa 0,0 l/m 0,0 km/h (0 Bft) N-NO 22 5,3 C 14,3 C 0,0 km/h (0 Bft)
11.02.2015 14:10 8,6 C 1,3 C 81 % 81 % 1028,3 hPa 0,0 l/m 0,0 km/h (0 Bft) N 360 5,5 C 15,0 C 0,0 km/h (0 Bft)
11.02.2015 14:15 9,1 C 1,3 C 79 % 79 % 1028,4 hPa 0,0 l/m 0,0 km/h (0 Bft) N 360 5,7 C 15,2 C 0,0 km/h (0 Bft)
11.02.2015 14:20 9,5 C 1,3 C 77 % 77 % 1028,4 hPa 0,0 l/m 0,0 km/h (0 Bft) O-SO 112 5,7 C 15,0 C 0,0 km/h (0 Bft)
11.02.2015 14:25 9,7 C 1,3 C 76 % 76 % 1028,4 hPa 0,0 l/m 0,0 km/h (0 Bft) O-SO 112 5,7 C 15,2 C 0,0 km/h (0 Bft)
11.02.2015 14:30 10,0 C 1,3 C 73 % 73 % 1028,4 hPa 0,0 l/m 0,0 km/h (0 Bft) O-SO 112 5,4 C 15,7 C 0,0 km/h (0 Bft)
11.02.2015 14:35 10,4 C 1,3 C 73 % 73 % 1028,2 hPa 0,0 l/m 0,0 km/h (0 Bft) O-SO 112 5,8 C 15,8 C 0,0 km/h (0 Bft)
11.02.2015 14:40 10,9 C 1,3 C 69 % 69 % 1028,2 hPa 0,0 l/m 0,0 km/h (0 Bft) SO 135 5,4 C 16,3 C 0,0 km/h (0 Bft)
11.02.2015 14:45 11,0 C 1,3 C 68 % 68 % 1028,2 hPa 0,0 l/m 0,0 km/h (0 Bft) SO 135 5,3 C 16,1 C 0,0 km/h (0 Bft)
11.02.2015 14:50 10,7 C 1,3 C 66 % 66 % 1028,2 hPa 0,0 l/m 0,0 km/h (0 Bft) SO 135 4,6 C 15,7 C 0,0 km/h (0 Bft)
11.02.2015 14:55 10,5 C 1,3 C 66 % 66 % 1027,7 hPa 0,0 l/m 0,0 km/h (0 Bft) SO 135 4,4 C 15,7 C 0,0 km/h (0 Bft)
11.02.2015 15:00 10,0 C 1,3 C 65 % 65 % 1027,7 hPa 0,0 l/m 0,0 km/h (0 Bft) S-SW 202 3,7 C 15,5 C 0,0 km/h (0 Bft)
11.02.2015 15:05 9,8 C 1,3 C 65 % 65 % 1027,7 hPa 0,0 l/m 0,0 km/h (0 Bft) S-SW 202 3,5 C 15,2 C 0,0 km/h (0 Bft)
11.02.2015 15:10 10,0 C 1,3 C 65 % 65 % 1027,7 hPa 0,0 l/m 0,0 km/h (0 Bft) S 180 3,7 C 14,9 C 0,0 km/h (0 Bft)
11.02.2015 15:15 9,9 C 1,3 C 66 % 66 % 1027,2 hPa 0,0 l/m 0,0 km/h (0 Bft) S 180 3,9 C 14,8 C 0,0 km/h (0 Bft)
11.02.2015 15:20 9,9 C 1,3 C 66 % 66 % 1027,2 hPa 0,0 l/m 0,0 km/h (0 Bft) S-SW 202 3,9 C 14,4 C 0,0 km/h (0 Bft)
11.02.2015 15:25 9,4 C 1,3 C 65 % 65 % 1027,2 hPa 0,0 l/m 0,0 km/h (0 Bft) SW 225 3,2 C 14,3 C 0,0 km/h (0 Bft)
11.02.2015 15:30 8,6 C 1,3 C 65 % 65 % 1027,2 hPa 0,0 l/m 0,0 km/h (0 Bft) SW 225 2,4 C 13,5 C 0,0 km/h (0 Bft)
11.02.2015 15:35 8,1 C 1,3 C 65 % 65 % 1026,8 hPa 0,0 l/m 0,0 km/h (0 Bft) SW 225 1,9 C 13,2 C 0,0 km/h (0 Bft)
11.02.2015 15:40 7,0 C 1,2 C 65 % 65 % 1026,8 hPa 0,0 l/m 0,0 km/h (0 Bft) S-SO 157 0,9 C 11,2 C 0,0 km/h (0 Bft)
11.02.2015 15:45 6,8 C 1,2 C 66 % 66 % 1026,8 hPa 0,0 l/m 0,0 km/h (0 Bft) S-SW 202 0,9 C 10,8 C 0,0 km/h (0 Bft)
11.02.2015 15:50 5,4 C 1,2 C 66 % 66 % 1026,8 hPa 0,0 l/m 0,0 km/h (0 Bft) SO 135 -0,4 C 10,1 C 0,0 km/h (0 Bft)
11.02.2015 15:55 4,3 C 1,3 C 67 % 67 % 1026,4 hPa 0,0 l/m 0,0 km/h (0 Bft) S-SO 157 -1,3 C 8,2 C 0,0 km/h (0 Bft)
11.02.2015 16:00 3,5 C 1,3 C 69 % 69 % 1026,4 hPa 0,0 l/m 0,2 km/h (0 Bft) S 180 -1,6 C 5,7 C 0,0 km/h (0 Bft)
11.02.2015 16:05 3,1 C 1,3 C 69 % 69 % 1026,4 hPa 0,0 l/m 0,2 km/h (0 Bft) S 180 -2,0 C 4,5 C 0,0 km/h (0 Bft)
11.02.2015 16:10 2,7 C 1,3 C 70 % 70 % 1026,4 hPa 0,0 l/m 0,0 km/h (0 Bft) SO 135 -2,2 C 3,1 C 0,0 km/h (0 Bft)
11.02.2015 16:15 2,5 C 1,2 C 71 % 71 % 1026,1 hPa 0,0 l/m 0,0 km/h (0 Bft) SO 135 -2,2 C 2,5 C 0,0 km/h (0 Bft)
11.02.2015 16:20 2,1 C 1,2 C 72 % 72 % 1026,1 hPa 0,0 l/m 0,0 km/h (0 Bft) SO 135 -2,4 C 1,8 C 0,0 km/h (0 Bft)
11.02.2015 16:25 1,8 C 1,2 C 72 % 72 % 1026,1 hPa 0,0 l/m 0,0 km/h (0 Bft) SO 135 -2,7 C 1,3 C 0,0 km/h (0 Bft)
11.02.2015 16:30 1,4 C 1,2 C 73 % 73 % 1026,1 hPa 0,0 l/m 0,0 km/h (0 Bft) SO 135 -2,9 C 0,7 C 0,0 km/h (0 Bft)
11.02.2015 16:35 1,0 C 1,2 C 73 % 73 % 1025,9 hPa 0,0 l/m 0,0 km/h (0 Bft) O-SO 112 -3,3 C 0,4 C 0,0 km/h (0 Bft)
11.02.2015 16:40 0,4 C 1,3 C 73 % 73 % 1025,9 hPa 0,0 l/m 0,0 km/h (0 Bft) SO 135 -3,9 C -0,3 C 0,0 km/h (0 Bft)
11.02.2015 16:45 0,2 C 1,3 C 73 % 73 % 1025,9 hPa 0,0 l/m 0,0 km/h (0 Bft) O-NO 67 -4,1 C -0,6 C 0,0 km/h (0 Bft)
11.02.2015 16:50 -0,4 C 1,3 C 74 % 74 % 1025,9 hPa 0,0 l/m 0,0 km/h (0 Bft) N-NO 22 -4,5 C -1,2 C 0,0 km/h (0 Bft)
11.02.2015 16:55 -0,7 C 1,3 C 74 % 74 % 1025,9 hPa 0,0 l/m 0,3 km/h (0 Bft) NO 45 -4,7 C -1,6 C 3,4 km/h (1 Bft)
11.02.2015 17:00 -1,2 C 1,3 C 74 % 74 % 1025,9 hPa 0,0 l/m 0,3 km/h (0 Bft) O 90 -5,2 C -2,1 C 0,0 km/h (0 Bft)
11.02.2015 17:05 -1,4 C 1,3 C 75 % 75 % 1025,9 hPa 0,0 l/m 0,2 km/h (0 Bft) O-NO 67 -5,2 C -2,3 C 0,0 km/h (0 Bft)
11.02.2015 17:10 -1,5 C 1,3 C 75 % 75 % 1025,9 hPa 0,0 l/m 0,0 km/h (0 Bft) O 90 -5,3 C -2,6 C 0,0 km/h (0 Bft)
11.02.2015 17:15 -1,6 C 1,3 C 76 % 76 % 1025,6 hPa 0,0 l/m 0,0 km/h (0 Bft) O-NO 67 -5,3 C -2,8 C 0,0 km/h (0 Bft)
11.02.2015 17:20 -1,9 C 1,3 C 76 % 76 % 1025,6 hPa 0,0 l/m 0,0 km/h (0 Bft) O-NO 67 -5,6 C -3,0 C 0,0 km/h (0 Bft)
11.02.2015 17:25 -2,4 C 1,2 C 76 % 76 % 1025,6 hPa 0,0 l/m 0,0 km/h (0 Bft) O-NO 67 -6,0 C -3,2 C 0,0 km/h (0 Bft)
11.02.2015 17:30 -3,0 C 1,2 C 76 % 76 % 1025,6 hPa 0,0 l/m 0,0 km/h (0 Bft) O-NO 67 -6,6 C -3,7 C 0,0 km/h (0 Bft)
11.02.2015 17:35 -3,3 C 1,2 C 76 % 76 % 1025,6 hPa 0,0 l/m 0,0 km/h (0 Bft) O-SO 112 -6,9 C -4,1 C 0,0 km/h (0 Bft)
11.02.2015 17:40 -3,0 C 1,2 C 77 % 77 % 1025,6 hPa 0,0 l/m 0,0 km/h (0 Bft) O-SO 112 -6,4 C -4,2 C 0,0 km/h (0 Bft)
11.02.2015 17:45 -2,9 C 1,2 C 78 % 78 % 1025,6 hPa 0,0 l/m 0,0 km/h (0 Bft) SO 135 -6,2 C -4,3 C 0,0 km/h (0 Bft)
11.02.2015 17:50 -2,9 C 1,2 C 79 % 79 % 1025,6 hPa 0,0 l/m 0,2 km/h (0 Bft) SO 135 -6,0 C -4,1 C 0,0 km/h (0 Bft)
11.02.2015 17:55 -3,1 C 1,2 C 79 % 79 % 1025,6 hPa 0,0 l/m 0,2 km/h (0 Bft) SO 135 -6,2 C -4,1 C 0,0 km/h (0 Bft)
11.02.2015 18:00 -3,1 C 1,2 C 79 % 79 % 1025,6 hPa 0,0 l/m 0,2 km/h (0 Bft) S 180 -6,2 C -4,2 C 0,0 km/h (0 Bft)
11.02.2015 18:05 -3,5 C 1,2 C 79 % 79 % 1025,6 hPa 0,0 l/m 0,0 km/h (0 Bft) SO 135 -6,6 C -4,4 C 0,0 km/h (0 Bft)
11.02.2015 18:10 -3,7 C 1,2 C 79 % 79 % 1025,6 hPa 0,0 l/m 0,0 km/h (0 Bft) SO 135 -6,8 C -4,7 C 0,0 km/h (0 Bft)
11.02.2015 18:15 -3,8 C 1,2 C 79 % 79 % 1025,8 hPa 0,0 l/m 0,0 km/h (0 Bft) SO 135 -6,9 C -4,8 C 0,0 km/h (0 Bft)
11.02.2015 18:20 -3,7 C 1,2 C 79 % 79 % 1025,8 hPa 0,0 l/m 0,0 km/h (0 Bft) O-NO 67 -6,8 C -4,9 C 0,0 km/h (0 Bft)
11.02.2015 18:25 -3,9 C 1,2 C 80 % 80 % 1025,8 hPa 0,0 l/m 0,0 km/h (0 Bft) S 180 -6,8 C -5,0 C 0,0 km/h (0 Bft)
11.02.2015 18:30 -3,6 C 1,2 C 81 % 81 % 1025,8 hPa 0,0 l/m 0,2 km/h (0 Bft) O-SO 112 -6,4 C -4,7 C 0,0 km/h (0 Bft)
11.02.2015 18:35 -4,3 C 1,2 C 81 % 81 % 1025,6 hPa 0,0 l/m 0,2 km/h (0 Bft) O-SO 112 -7,1 C -4,9 C 0,0 km/h (0 Bft)
11.02.2015 18:40 -4,1 C 1,2 C 81 % 81 % 1025,6 hPa 0,0 l/m 0,0 km/h (0 Bft) SO 135 -6,9 C -5,1 C 0,0 km/h (0 Bft)
11.02.2015 18:45 -3,9 C 1,2 C 81 % 81 % 1025,6 hPa 0,0 l/m 0,0 km/h (0 Bft) SO 135 -6,7 C -5,2 C 0,0 km/h (0 Bft)
11.02.2015 18:50 -4,1 C 1,2 C 81 % 81 % 1025,6 hPa 0,0 l/m 0,0 km/h (0 Bft) N-NW 337 -6,9 C -5,0 C 0,0 km/h (0 Bft)
11.02.2015 18:55 -5,0 C 1,2 C 81 % 81 % 1025,5 hPa 0,0 l/m 0,0 km/h (0 Bft) N-NW 337 -7,7 C -5,2 C 0,0 km/h (0 Bft)
11.02.2015 19:00 -5,4 C 1,2 C 81 % 81 % 1025,5 hPa 0,0 l/m 0,0 km/h (0 Bft) N-NO 22 -8,1 C -5,8 C 0,0 km/h (0 Bft)
11.02.2015 19:05 -5,6 C 1,2 C 81 % 81 % 1025,5 hPa 0,0 l/m 0,0 km/h (0 Bft) N-NO 22 -8,3 C -6,0 C 0,0 km/h (0 Bft)
11.02.2015 19:10 -5,4 C 1,2 C 81 % 81 % 1025,5 hPa 0,0 l/m 0,0 km/h (0 Bft) NO 45 -8,1 C -6,0 C 0,0 km/h (0 Bft)
11.02.2015 19:15 -5,5 C 1,2 C 81 % 81 % 1025,5 hPa 0,0 l/m 0,0 km/h (0 Bft) NO 45 -8,2 C -6,1 C 0,0 km/h (0 Bft)
11.02.2015 19:20 -5,5 C 1,2 C 81 % 81 % 1025,5 hPa 0,0 l/m 0,0 km/h (0 Bft) NO 45 -8,2 C -6,4 C 0,0 km/h (0 Bft)
11.02.2015 19:25 -5,1 C 1,2 C 82 % 82 % 1025,5 hPa 0,0 l/m 0,0 km/h (0 Bft) NO 45 -7,7 C -6,5 C 0,0 km/h (0 Bft)
11.02.2015 19:30 -4,8 C 1,2 C 82 % 82 % 1025,5 hPa 0,0 l/m 0,0 km/h (0 Bft) NO 45 -7,4 C -6,3 C 0,0 km/h (0 Bft)
11.02.2015 19:35 -5,0 C 1,2 C 82 % 82 % 1025,6 hPa 0,0 l/m 0,0 km/h (0 Bft) N-NO 22 -7,6 C -6,1 C 0,0 km/h (0 Bft)
11.02.2015 19:40 -5,5 C 1,2 C 82 % 82 % 1025,6 hPa 0,0 l/m 0,0 km/h (0 Bft) NW 315 -8,1 C -6,4 C 0,0 km/h (0 Bft)
11.02.2015 19:45 -5,6 C 1,2 C 82 % 82 % 1025,6 hPa 0,0 l/m 0,0 km/h (0 Bft) N-NW 337 -8,2 C -6,4 C 0,0 km/h (0 Bft)
11.02.2015 19:50 -5,9 C 1,2 C 82 % 82 % 1025,6 hPa 0,0 l/m 0,0 km/h (0 Bft) NW 315 -8,5 C -6,6 C 0,0 km/h (0 Bft)
11.02.2015 19:55 -5,9 C 1,3 C 82 % 82 % 1025,2 hPa 0,0 l/m 0,0 km/h (0 Bft) NW 315 -8,5 C -6,7 C 0,0 km/h (0 Bft)
11.02.2015 20:00 -6,0 C 1,3 C 81 % 81 % 1025,2 hPa 0,0 l/m 0,0 km/h (0 Bft) N-NO 22 -8,7 C -6,8 C 0,0 km/h (0 Bft)
11.02.2015 20:05 -6,4 C 1,3 C 81 % 81 % 1025,2 hPa 0,0 l/m 0,0 km/h (0 Bft) N-NO 22 -9,1 C -6,9 C 0,0 km/h (0 Bft)
11.02.2015 20:10 -6,4 C 1,3 C 81 % 81 % 1025,2 hPa 0,0 l/m 0,0 km/h (0 Bft) N-NO 22 -9,1 C -6,9 C 0,0 km/h (0 Bft)
11.02.2015 20:15 -6,3 C 1,3 C 81 % 81 % 1025,4 hPa 0,0 l/m 0,0 km/h (0 Bft) NO 45 -9,0 C -6,8 C 0,0 km/h (0 Bft)
11.02.2015 20:20 -5,7 C 1,3 C 82 % 82 % 1025,4 hPa 0,0 l/m 0,0 km/h (0 Bft) NO 45 -8,3 C -6,6 C 0,0 km/h (0 Bft)
11.02.2015 20:25 -5,7 C 1,3 C 82 % 82 % 1025,4 hPa 0,0 l/m 0,0 km/h (0 Bft) NO 45 -8,3 C -6,7 C 0,0 km/h (0 Bft)
11.02.2015 20:30 -5,9 C 1,3 C 82 % 82 % 1025,4 hPa 0,0 l/m 0,0 km/h (0 Bft) W 270 -8,5 C -6,9 C 0,0 km/h (0 Bft)
11.02.2015 20:35 -6,0 C 1,3 C 82 % 82 % 1025,4 hPa 0,0 l/m 0,0 km/h (0 Bft) W 270 -8,6 C -6,9 C 0,0 km/h (0 Bft)
11.02.2015 20:40 -6,3 C 1,3 C 81 % 81 % 1025,4 hPa 0,0 l/m 0,0 km/h (0 Bft) W 270 -9,0 C -6,9 C 0,0 km/h (0 Bft)
11.02.2015 20:45 -6,6 C 1,3 C 81 % 81 % 1025,4 hPa 0,0 l/m 0,0 km/h (0 Bft) W 270 -9,3 C -7,1 C 0,0 km/h (0 Bft)
11.02.2015 20:50 -6,9 C 1,3 C 81 % 81 % 1025,4 hPa 0,0 l/m 0,0 km/h (0 Bft) W 270 -9,6 C -7,3 C 0,0 km/h (0 Bft)
11.02.2015 20:55 -6,8 C 1,3 C 81 % 81 % 1025,4 hPa 0,0 l/m 0,0 km/h (0 Bft) W 270 -9,5 C -7,4 C 0,0 km/h (0 Bft)
11.02.2015 21:00 -6,7 C 1,3 C 81 % 81 % 1025,4 hPa 0,0 l/m 0,0 km/h (0 Bft) W 270 -9,4 C -7,5 C 0,0 km/h (0 Bft)
11.02.2015 21:05 -6,6 C 1,3 C 81 % 81 % 1025,4 hPa 0,0 l/m 0,0 km/h (0 Bft) W 270 -9,3 C -7,6 C 0,0 km/h (0 Bft)
11.02.2015 21:10 -6,6 C 1,3 C 81 % 81 % 1025,4 hPa 0,0 l/m 0,0 km/h (0 Bft) W 270 -9,3 C -7,5 C 0,0 km/h (0 Bft)
11.02.2015 21:15 -6,9 C 1,3 C 81 % 81 % 1025,2 hPa 0,0 l/m 0,0 km/h (0 Bft) W 270 -9,6 C -7,6 C 0,0 km/h (0 Bft)
11.02.2015 21:20 -6,5 C 1,3 C 81 % 81 % 1025,2 hPa 0,0 l/m 0,0 km/h (0 Bft) W-SW 247 -9,2 C -7,5 C 0,0 km/h (0 Bft)
11.02.2015 21:25 -6,7 C 1,3 C 81 % 81 % 1025,2 hPa 0,0 l/m 0,0 km/h (0 Bft) W-SW 247 -9,4 C -7,3 C 0,0 km/h (0 Bft)
11.02.2015 21:30 -6,9 C 1,3 C 81 % 81 % 1025,2 hPa 0,0 l/m 0,0 km/h (0 Bft) W-SW 247 -9,6 C -7,2 C 0,0 km/h (0 Bft)
11.02.2015 21:35 -6,7 C 1,3 C 81 % 81 % 1025,3 hPa 0,0 l/m 0,0 km/h (0 Bft) W-SW 247 -9,4 C -7,3 C 0,0 km/h (0 Bft)
11.02.2015 21:40 -6,5 C 1,3 C 81 % 81 % 1025,3 hPa 0,0 l/m 0,0 km/h (0 Bft) W-NW 292 -9,2 C -7,3 C 0,0 km/h (0 Bft)
11.02.2015 21:45 -7,3 C 1,3 C 81 % 81 % 1025,3 hPa 0,0 l/m 0,0 km/h (0 Bft) W-NW 292 -10,0 C -7,5 C 0,0 km/h (0 Bft)
11.02.2015 21:50 -7,5 C 1,3 C 80 % 80 % 1025,3 hPa 0,0 l/m 0,0 km/h (0 Bft) W-NW 292 -10,3 C -7,9 C 0,0 km/h (0 Bft)
11.02.2015 21:55 -7,3 C 1,3 C 81 % 81 % 1025,2 hPa 0,0 l/m 0,0 km/h (0 Bft) O-SO 112 -10,0 C -7,9 C 0,0 km/h (0 Bft)
11.02.2015 22:00 -7,3 C 1,3 C 81 % 81 % 1025,2 hPa 0,0 l/m 0,0 km/h (0 Bft) O-SO 112 -10,0 C -7,8 C 0,0 km/h (0 Bft)
11.02.2015 22:05 -7,4 C 1,3 C 80 % 80 % 1025,2 hPa 0,0 l/m 0,0 km/h (0 Bft) O-NO 67 -10,2 C -7,8 C 0,0 km/h (0 Bft)
11.02.2015 22:10 -7,5 C 1,3 C 80 % 80 % 1025,2 hPa 0,0 l/m 0,0 km/h (0 Bft) O-NO 67 -10,3 C -7,8 C 0,0 km/h (0 Bft)
11.02.2015 22:15 -7,0 C 1,3 C 81 % 81 % 1025,1 hPa 0,0 l/m 0,0 km/h (0 Bft) S-SW 202 -9,7 C -7,6 C 0,0 km/h (0 Bft)
11.02.2015 22:20 -6,8 C 1,3 C 81 % 81 % 1025,1 hPa 0,0 l/m 0,0 km/h (0 Bft) W 270 -9,5 C -7,5 C 0,0 km/h (0 Bft)
11.02.2015 22:25 -7,6 C 1,3 C 80 % 80 % 1025,1 hPa 0,0 l/m 0,0 km/h (0 Bft) W 270 -10,4 C -7,9 C 0,0 km/h (0 Bft)
11.02.2015 22:30 -7,7 C 1,3 C 80 % 80 % 1025,1 hPa 0,0 l/m 0,0 km/h (0 Bft) S-SW 202 -10,5 C -8,3 C 0,0 km/h (0 Bft)
11.02.2015 22:35 -7,7 C 1,3 C 80 % 80 % 1025,1 hPa 0,0 l/m 0,0 km/h (0 Bft) S-SW 202 -10,5 C -8,2 C 0,0 km/h (0 Bft)
11.02.2015 22:40 -7,7 C 1,3 C 80 % 80 % 1025,1 hPa 0,0 l/m 0,0 km/h (0 Bft) W-SW 247 -10,5 C -8,2 C 0,0 km/h (0 Bft)
11.02.2015 22:45 -7,5 C 1,3 C 81 % 81 % 1025,1 hPa 0,0 l/m 0,0 km/h (0 Bft) W-SW 247 -10,2 C -8,3 C 0,0 km/h (0 Bft)
11.02.2015 22:50 -7,5 C 1,3 C 81 % 81 % 1025,1 hPa 0,0 l/m 0,0 km/h (0 Bft) S-SO 157 -10,2 C -8,3 C 0,0 km/h (0 Bft)
11.02.2015 22:55 -7,5 C 1,3 C 80 % 80 % 1025,4 hPa 0,0 l/m 0,0 km/h (0 Bft) W-SW 247 -10,3 C -8,3 C 0,0 km/h (0 Bft)
11.02.2015 23:00 -8,2 C 1,3 C 80 % 80 % 1025,4 hPa 0,0 l/m 0,0 km/h (0 Bft) W-SW 247 -11,0 C -8,6 C 0,0 km/h (0 Bft)
11.02.2015 23:05 -8,7 C 1,3 C 79 % 79 % 1025,4 hPa 0,0 l/m 0,0 km/h (0 Bft) SO 135 -11,7 C -8,8 C 0,0 km/h (0 Bft)
11.02.2015 23:10 -8,5 C 1,3 C 80 % 80 % 1025,4 hPa 0,0 l/m 0,0 km/h (0 Bft) S-SO 157 -11,3 C -9,2 C 0,0 km/h (0 Bft)
11.02.2015 23:15 -8,3 C 1,3 C 80 % 80 % 1024,9 hPa 0,0 l/m 0,0 km/h (0 Bft) SO 135 -11,1 C -9,1 C 0,0 km/h (0 Bft)
11.02.2015 23:20 -8,1 C 1,3 C 80 % 80 % 1024,9 hPa 0,0 l/m 0,0 km/h (0 Bft) SO 135 -10,9 C -8,7 C 0,0 km/h (0 Bft)
11.02.2015 23:25 -8,1 C 1,3 C 80 % 80 % 1024,9 hPa 0,0 l/m 0,0 km/h (0 Bft) S 180 -10,9 C -8,7 C 0,0 km/h (0 Bft)
11.02.2015 23:30 -7,9 C 1,3 C 80 % 80 % 1024,9 hPa 0,0 l/m 0,0 km/h (0 Bft) S 180 -10,7 C -8,9 C 0,0 km/h (0 Bft)
11.02.2015 23:35 -7,9 C 1,3 C 80 % 80 % 1024,9 hPa 0,0 l/m 0,0 km/h (0 Bft) S 180 -10,7 C -8,9 C 0,0 km/h (0 Bft)
11.02.2015 23:40 -8,9 C 1,3 C 79 % 79 % 1024,9 hPa 0,0 l/m 0,0 km/h (0 Bft) S 180 -11,9 C -9,2 C 0,0 km/h (0 Bft)
11.02.2015 23:45 -9,3 C 1,3 C 79 % 79 % 1024,9 hPa 0,0 l/m 0,0 km/h (0 Bft) S 180 -12,2 C -9,6 C 0,0 km/h (0 Bft)
11.02.2015 23:50 -9,2 C 1,3 C 79 % 79 % 1024,9 hPa 0,0 l/m 0,0 km/h (0 Bft) S 180 -12,2 C -9,8 C 0,0 km/h (0 Bft)
11.02.2015 23:55 -9,1 C 1,3 C 79 % 79 % 1024,9 hPa 0,0 l/m 0,0 km/h (0 Bft) S 180 -12,1 C -9,8 C 0,0 km/h (0 Bft)
_ Min-Zeit 04:20 19:50 15:40 15:40 23:55 - 23:55 - - 04:20 04:25 23:55
Minimum _ -10,6 C 1,2 C 65 % 65 % 1024,9 hPa - 0,0 km/h (0 Bft) - - -13,7 C -11,2 C 0,0 km/h (0 Bft)
_ Max-Zeit 14:45 11:55 14:00 14:00 12:50 23:55 10:00 - - 14:35 14:40 10:00
Maximum _ 11,0 C 1,4 C 84 % 84 % 1029,1 hPa 0,0 l/m 1,4 km/h
O-NO (1 Bft)
- - 5,8 C 16,3 C 4,7 km/h
O-NO (1 Bft)
Durchschnitt _ -4,4 C 1,3 C 79 % 79 % 1026,6 hPa #0,0 l/m 0,1 km/h (0 Bft) NO - -7,6 C -4,1 C 0,1 km/h (0 Bft)